FW1686 Weather Reports


time (UTC)temp
C
wind
direction
speed
KPH
gust
KPH
rain 1hr
cm
rain 24hr
cm
rain mn
cm
humidity
%
barometer
mb
20260510071527 12 194 3.2 9.7 0.05 1.78 0.76 96 1008.4
20260510070011 12 259 1.6 6.4 0.05 1.78 0.76 96 1008.3
20260510064517 12 171 6.4 19.3 0.05 1.78 0.76 96 1008.8
20260510063021 11 259 1.6 8.0 0.00 1.73 0.71 96 1009.7
20260510061531 11 195 0.0 4.8 0.05 1.73 0.71 96 1008.9
20260510060045 12 186 1.6 8.0 0.15 1.73 0.71 96 1008.8
20260510054548 12 182 1.6 8.0 0.36 1.73 0.71 96 1008.9
20260510053107 12 178 1.6 11.3 0.61 1.73 0.71 95 1008.9
20260510051503 12 223 1.6 3.2 0.66 1.68 0.66 95 1009.9
20260510050059 12 227 1.6 8.0 0.56 1.57 0.56 95 1009.1
20260510050001 12 234 1.6 8.0 0.56 1.57 0.56 95 1009.2
20260510044550 12 226 1.6 4.8 0.36 1.37 0.36 95 1009.3
20260510043143 12 267 1.6 6.4 0.10 1.12 0.10 95 1009.6
20260510041558 12 189 3.2 8.0 0.00 1.02 0.00 95 1009.0
20260510041506 12 189 1.6 8.0 0.00 1.02 0.00 95 1008.9
20260510040010 12 184 4.8 12.9 0.00 1.02 1.02 94 1008.6
20260510034510 12 154 4.8 12.9 0.08 1.02 1.02 94 1008.6
20260510033016 12 161 4.8 9.7 0.25 1.02 1.02 94 1008.6
20260510031535 12 157 3.2 8.0 0.41 1.02 1.02 94 1008.7
20260510030028 12 153 1.6 11.3 0.81 1.12 1.02 93 1008.7
20260510024536 12 84 1.6 4.8 0.79 1.04 0.94 92 1009.5
20260510023046 12 33 3.2 6.4 0.61 0.86 0.79 91 1009.6
20260510021549 12 331 4.8 20.9 0.46 0.71 0.61 87 1009.8
20260510020055 14 290 8.0 33.8 0.05 0.33 0.20 79 1009.2
20260510014558 16 73 11.3 25.7 0.00 0.28 0.15 69 1008.4
20260510013056 16 207 6.4 16.1 0.00 0.28 0.15 69 1007.0
20260510013008 16 182 6.4 16.1 0.00 0.28 0.15 69 1006.9
20260510011612 16 182 4.8 17.7 0.00 0.28 0.15 68 1006.5
20260510004552 16 218 8.0 20.9 0.00 0.28 0.15 65 1006.5
20260510003003 17 217 8.0 22.5 0.00 0.28 0.15 64 1006.5
20260510001505 17 182 6.4 19.3 0.00 0.28 0.15 63 1006.4
20260510000009 17 207 8.0 17.7 0.00 0.28 0.15 62 1006.3
20260509234524 18 206 8.0 25.7 0.00 0.28 0.15 62 1006.1
20260509233030 18 217 9.7 25.7 0.00 0.28 0.15 60 1005.9
20260509231532 18 195 8.0 22.5 0.00 0.28 0.15 59 1006.2
20260509230042 18 229 11.3 25.7 0.00 0.28 0.15 59 1006.1
20260509224540 19 222 11.3 32.2 0.00 0.28 0.15 58 1005.8
20260509223034 19 218 9.7 22.5 0.00 0.28 0.15 58 1005.6
20260509221542 19 191 14.5 29.0 0.00 0.28 0.15 58 1005.6
20260509220045 19 234 11.3 32.2 0.00 0.28 0.15 59 1005.9
20260509214550 20 213 11.3 24.1 0.00 0.28 0.15 58 1006.3
20260509213049 19 209 8.0 33.8 0.00 0.28 0.15 60 1006.1
20260509211608 19 190 16.1 25.7 0.00 0.28 0.15 60 1006.3
20260509210058 18 228 9.7 29.0 0.00 0.28 0.15 63 1006.5
20260509204603 18 186 11.3 32.2 0.00 0.28 0.15 62 1006.5
20260509203002 18 254 6.4 32.2 0.00 0.28 0.15 65 1006.8
20260509201559 18 198 9.7 19.3 0.00 0.28 0.15 68 1006.8
20260509201502 17 272 12.9 19.3 0.00 0.28 0.15 67 1006.8
20260509200103 18 195 11.3 19.3 0.00 0.30 0.15 66 1007.0
20260509200002 18 194 6.4 20.9 0.00 0.30 0.15 67 1007.1
20260509194511 17 215 6.4 25.7 0.00 0.30 0.15 68 1007.3
20260509193013 17 215 12.9 27.4 0.00 0.30 0.15 68 1007.4
20260509191558 17 209 12.9 35.4 0.00 0.30 0.15 68 1007.5
20260509190100 17 249 12.9 27.4 0.00 0.30 0.15 69 1007.6
20260509184505 17 219 9.7 20.9 0.00 0.30 0.15 72 1007.9
20260509183013 16 219 12.9 25.7 0.00 0.30 0.15 74 1008.0
20260509181516 16 242 9.7 16.1 0.00 0.30 0.15 75 1008.0
20260509180018 15 194 9.7 19.3 0.00 0.30 0.15 77 1008.3
20260509174526 15 230 4.8 14.5 0.00 0.30 0.15 78 1008.2
20260509173029 15 233 12.9 30.6 0.00 0.30 0.15 77 1008.3
20260509171533 15 235 8.0 27.4 0.00 0.30 0.15 77 1008.2
20260509170045 15 238 8.0 24.1 0.00 0.30 0.15 76 1008.0
20260509164553 15 275 12.9 22.5 0.00 0.30 0.15 78 1007.9
20260509163059 14 232 12.9 30.6 0.00 0.30 0.15 80 1008.0
20260509161555 15 209 12.9 22.5 0.00 0.30 0.15 77 1007.8
20260509160039 14 225 9.7 16.1 0.00 0.30 0.15 82 1007.8
20260509154540 13 201 11.3 25.7 0.00 0.30 0.15 85 1007.7
20260509153044 13 201 11.3 22.5 0.00 0.30 0.15 89 1007.8
20260509151552 12 193 8.0 19.3 0.00 0.30 0.15 92 1007.7
20260509150053 11 221 6.4 24.1 0.00 0.30 0.15 94 1007.8
20260509144559 11 227 8.0 19.3 0.00 0.30 0.15 94 1007.8
20260509144504 11 234 6.4 22.5 0.00 0.30 0.15 94 1007.8
20260509143010 11 241 8.0 19.3 0.00 0.30 0.15 95 1007.9
20260509141519 11 221 8.0 17.7 0.00 0.30 0.15 95 1007.9
20260509140020 11 229 9.7 19.3 0.00 0.30 0.15 95 1008.0
20260509134524 10 213 8.0 19.3 0.00 0.30 0.15 95 1008.0
20260509133009 10 196 6.4 16.1 0.00 0.30 0.15 95 1008.0
20260509131522 10 205 3.2 14.5 0.03 0.30 0.15 95 1008.2
20260509130021 10 212 3.2 19.3 0.05 0.30 0.15 95 1008.2
20260509124527 10 248 6.4 17.7 0.05 0.30 0.15 95 1008.2
20260509123028 10 194 4.8 20.9 0.05 0.30 0.15 95 1008.3
20260509121538 10 209 8.0 16.1 0.05 0.28 0.13 95 1008.4
20260509120040 10 207 6.4 16.1 0.05 0.25 0.10 95 1008.4
20260509114556 10 219 3.2 12.9 0.08 0.25 0.10 95 1008.3
20260509113052 10 209 4.8 17.7 0.08 0.25 0.10 95 1008.2
20260509111553 10 211 8.0 17.7 0.05 0.23 0.08 95 1008.2
20260509110101 10 182 6.4 22.5 0.03 0.20 0.05 95 1007.9
20260509110001 10 256 9.7 22.5 0.03 0.20 0.05 95 1008.0
20260509104602 10 221 4.8 19.3 0.00 0.18 0.03 95 1007.9
20260509103005 10 223 8.0 16.1 0.00 0.18 0.03 95 1008.0
20260509101517 10 197 8.0 16.1 0.00 0.18 0.03 95 1007.9
20260509100021 9 202 3.2 11.3 0.00 0.18 0.03 96 1007.9
20260509094527 9 198 6.4 12.9 0.03 0.18 0.03 96 1008.2
20260509093029 9 203 1.6 9.7 0.03 0.18 0.03 96 1008.3
20260509091538 9 178 3.2 9.7 0.03 0.18 0.03 96 1008.4
20260509090043 8 120 0.0 3.2 0.03 0.18 0.03 96 1008.6
20260509084551 8 120 0.0 4.8 0.00 0.15 0.00 96 1008.7
20260509083037 8 119 1.6 6.4 0.00 0.15 0.00 96 1008.7
20260509081552 8 117 1.6 4.8 0.00 0.15 0.00 96 1008.8
20260509080139 8 117 1.6 3.2 0.00 0.15 0.00 95 1008.9
20260509080001 8 117 0.0 3.2 0.00 0.15 0.00 95 1008.9
20260509074508 8 117 0.0 1.6 0.00 0.15 0.00 95 1009.0
20260509073158 8 116 1.6 4.8 0.00 0.15 0.00 95 1009.0